Regional Weather Roundup
Issued by NWS

Home | Current Version | Previous Version | Graphics & Text | Print | Product List | Glossary On
Versions: 1 2 3 4 5 6 7 8 9 10 11 12 13 14 15 16 17 18 19 20 21 22 23 24 25 26 27 28 29 30 31 32 33 34 35 36 37 38 39 40 41 42 43 44 45 46 47 48 49 50
000
ASUS43 KDMX 081101
RWRIA

WEATHER ROUNDUP FOR IOWA
NATIONAL WEATHER SERVICE DES MOINES IA
500 AM CST THU DEC 08 2016

NOTE: "FAIR" INDICATES FEW OR NO CLOUDS BELOW 12,000 FEET WITH NO
SIGNIFICANT WEATHER AND/OR OBSTRUCTIONS TO VISIBILITY.

* - THESE STATIONS ARE NOT NWS STATIONS...THUS NOT UNDER NWS
QUALITY CONTROL.  THEY ALSO DO NOT REPORT WEATHER SUCH
AS PRECIPITATION OR FOG.

IAZ001>003-012>014-020>022-031>034-043>046-081200-
   NORTHWEST IOWA

CITY           SKY/WX    TMP DP  RH WIND       PRES   REMARKS
CARROLL *      CLEAR     10   5  79 NW22G32   30.41R WCI  -9
CHEROKEE *     PTCLDY     9   3  79 NW13G23   30.43R WCI  -7
DENISON *      CLEAR     10   3  72 NW20G32   30.42S WCI  -8
LE MARS *      CLOUDY     9   3  78 NW16G23   30.47S WCI  -9
ORANGE CITY *  CLEAR      9   3  78 NW23G30   30.40F WCI -12
SHELDON *      CLOUDY     9   5  85 NW18G29   30.39R WCI -10
SIOUX CITY     CLEAR     12   2  64 NW16G28   30.48R WCI  -5
SPENCER        CLOUDY    10   5  80 W29G37    30.36R WCI -12
STORM LAKE *   MOCLDY     9   3  78 NW25G31   30.37R WCI -13
$$

IAZ055>058-069>071-079>083-090>094-081200-
   SOUTHWEST IOWA

CITY           SKY/WX    TMP DP  RH WIND       PRES   REMARKS
ATLANTIC *     FLURRIES  12   7  79 NW18G24   30.45R WCI  -5
AUDUBON *      CLEAR     10   3  72 W14G22    30.42S WCI  -5
CLARINDA *     MOCLDY    14   7  73 NW13G18   30.51R WCI   0
COUNCIL BLFS * CLOUDY    12   5  73 NW14G22   30.49R WCI  -3
CRESTON *      PTCLDY    12   7  79 NW22      30.42R WCI  -7
HARLAN  *      FLURRIES  12   7  79 NW17G25   30.48R WCI  -5
LAMONI         CLEAR     13   6  74 W15       30.43R WCI  -3
RED OAK *      MOCLDY    12   5  73 NW16G24   30.49R WCI  -4
SHENANDOAH *   CLEAR     14   5  67 NW17      30.52R WCI  -3
$$

IAZ047>049-059>061-072>074-084-081200-
   CENTRAL IOWA

CITY           SKY/WX    TMP DP  RH WIND       PRES   REMARKS
AMES           CLEAR     11   5  77 W15G25    30.39R WCI  -5
ANKENY *       CLOUDY    12   5  73 W17G26    30.42R WCI  -5
BOONE *        PTCLDY    10   3  72 NW22G29   30.36R WCI  -9
CHARITON *     PTCLDY    14   5  67 NW18G28   30.40R WCI  -3
DES MOINES     PTCLDY    13   4  67 NW18      30.41R WCI  -4
GRINNELL*      PTCLDY    13   7  79 W20G29    30.35S WCI  -5
KNOXVILLE *    MOCLDY    14   3  62 NW21G26   30.38R WCI  -4
MARSHALLTOWN   CLEAR     11   5  77 W22G28    30.34R WCI  -8
NEWTON *       PTCLDY    12   5  73 W23G29    30.37R WCI  -7
PELLA *        MOCLDY    14   6  70 W17G26    30.40R WCI  -3
PERRY *          N/A     12   7  79 W18       30.41S WCI  -6
$$

IAZ004>006-015-016-023>025-035-036-081200-
   NORTH CENTRAL IOWA

CITY           SKY/WX    TMP DP  RH WIND       PRES   REMARKS
ALGONA *       FLURRIES  12   7  79 W16G26    30.32R WCI  -4
CLARION *      MOCLDY    10   5  79 W18G29    30.33R WCI  -8
ESTHERVILLE    MOCLDY    10   6  84 NW22G33   30.33R WCI -10
FORT DODGE *   MOCLDY    10   1  67 W17G25    30.36S WCI  -7
MASON CITY     CLOUDY    11   6  81 W21G28    30.28R WCI  -8
WEBSTER CITY * FLURRIES  10   5  79 W20G26    30.34R WCI  -8
IOWA FALLS *     N/A     12   6  78 W21G26    30.33R WCI  -7
$$

IAZ007>011-017>019-026>030-037>042-050>054-066-081200-
   NORTHEAST IOWA

CITY           SKY/WX    TMP DP  RH WIND       PRES   REMARKS
CEDAR RAPIDS   CLEAR     12   8  84 W21G28    30.30R WCI  -7
CHARLES CITY * CLOUDY    12   5  73 W15G22    30.26R WCI  -4
CLINTON *      CLOUDY    15   9  76 W21G33    30.27R WCI  -2
DECORAH *      CLOUDY    12   7  79 W8G21     30.19S WCI   1
DUBUQUE        CLOUDY    12   6  77 W23G31    30.22R WCI  -7
MONTICELLO *   PTCLDY    12   7  79 W16       30.27R WCI  -4
OELWEIN *      PTCLDY    10   7  85 W18G30    30.26R WCI  -8
WATERLOO       CLEAR     12   4  70 W16G22    30.29R WCI  -5
$$

IAZ064-065-067-068-078-081200-
   EAST CENTRAL IOWA

CITY           SKY/WX    TMP DP  RH WIND       PRES   REMARKS
DAVENPORT      PTCLDY    15   7  70 W25G32    30.29R WCI  -4
IOWA CITY      MOCLDY    16   7  67 W14       30.35R WCI   2
MUSCATINE *    CLOUDY    18   9  68 W18G26    30.35R WCI   2
QUAD CITIES    PTCLDY    18   8  65 NW21G28   30.30R WCI   1
$$

IAZ062-063-075>077-085>089-095>099-081200-
   SOUTHEAST IOWA

CITY           SKY/WX    TMP DP  RH WIND       PRES   REMARKS
BURLINGTON     PTCLDY    17   9  70 W14G24    30.35R WCI   3
FAIRFIELD *    PTCLDY    16   7  67 W15       30.36R WCI   1
FORT MADISON * PTCLDY    18  10  73 W13G18    30.36S WCI   4
KEOKUK *       CLOUDY    18  10  73 W10G18    30.37S WCI   6
OSKALOOSA *    MOCLDY    15   8  75 NW17G30   30.38R WCI  -2
CENTERVILLE *    N/A     14   9  79 W16G22    30.41R WCI  -2
OTTUMWA        CLOUDY    16   6  65 NW18G29   30.36S WCI   0
WASHINGTON *   CLOUDY    16  10  79 NW18G30   30.36R WCI  -1
$$

ABBREVIATIONS USED IN REMARKS
   TC - TEMPERATURES IN CELSIUS
  WCI - WIND CHILL INDEX
   HX - HEAT INDEX
  VSB - VISIBILITY
$$





USA.gov is the U.S. government's official web portal to all federal, state and local government web resources and services.